Preview of NWS' New Version of Forecast
This preview is not operational and should not be used for support decisions.

Regional Weather Roundup (RWR)

Issued by National Weather Service (NWS)

                            
000
ASCA42 TJSJ 221610
RWRPR 
PUERTO RICO/U.S. VIRGIN ISLANDS HOURLY WEATHER ROUNDUP
NATIONAL WEATHER SERVICE SAN JUAN PR
1200 PM AST MON APR 22 2019

PRZ001>002-007>008-010-221700-
PUERTO RICO
  
CITY           SKY/WX    TMP DP  RH WIND       PRES   REMARKS
SAN JUAN LMM   MOSUNNY   84  68  58 E18       30.02S                  
AGUADILLA      PTSUNNY   81  70  69 E17G26    30.03F                  
CEIBA          MOSUNNY   86  70  58 MISG      30.03F HX  90           
$$

VIZ001>002-221700-
U.S. VIRGIN ISLANDS
  
CITY           SKY/WX    TMP DP  RH WIND       PRES   REMARKS
CHARLOTTE AMA  MOSUNNY   88  66  48 E12G21    30.00F HX  90           
CHRISTIANSTED  MOSUNNY   82  66  57 E18       30.01F                  
$$

HOURLY WEATHER ROUNDUP FOR THE NEWS MEDIA
  
CITY           SKY/WX    TMP DP  RH WIND       PRES   REMARKS
ORLANDO        FAIR      77  41  27 VRB5      30.19F                  
NEW YORK       LGT RAIN  60  55  83 N13       30.02F                  
NEWARK         LGT RAIN  62  52  69 N14       30.03S                  
CHICAGO        CLOUDY    70  47  43 S14       30.01F                  
HARTFORD       LGT RAIN  57  54  89 N12G20    30.03R                  
BOSTON         CLOUDY    57  49  74 NE14      30.07F                  
DALLAS         CLOUDY    71  59  65 S13G21    30.06R                  
PHILADELPHIA   PTSUNNY   64  49  57 NW22      30.06F                  
LOS ANGELES    PTSUNNY   61  52  72 S3        30.02R                  
WASHINGTON DC  PTSUNNY   65  46  50 N12G20    30.16F